Date String (YYYY-MM-DD hh:mm:ss) UTC,Instrument flags,absolute air pressure of the measurement (hPa),sample flow rate (lpm),inlet stack bypass flow (lpm),air temperature of the measurement (°C),ambient temperature measured by the external sensor (°C),aerosol sample conditioner tube jacket temperature (°C),OPC LED temperature (°C),internal box temperature (°C),relative humidity of the measurement (%),span deviation,mass concentration of particles derived from Lorenz-Mie calculation of OPC scattering (μg/m³),mass concentration of particles derived from Lorenz-Mie calculation of OPC scattering (μg/m³),mass concentration of particles derived from Lorenz-Mie calculation of OPC scattering (μg/m³)
DateTimeUTC,F1_M11,P_M11,Q1_M11,Q2_M11,T1_M11,T2_M11,T3_M11,T4_M11,T5_M11,U1_M11,ZSPAN_M11,X0_M11,X2_M11,X1_M11
2024-06-15 18:00:00,SystemResetWarning,0826.1,5.02,000.00,028.7,025.8,000.0,037.4,029.6,025.4,0000.0,0016.42,0006.32,0005.29
2024-06-15 18:01:00,SystemResetWarning,0826.2,5.00,000.00,028.6,026.3,000.0,037.3,029.9,025.1,0000.0,0016.21,0006.31,0005.31
2024-06-15 18:02:00,SystemResetWarning,0826.2,5.00,000.00,028.7,026.8,000.0,037.2,030.1,023.1,0000.0,0018.14,0006.32,0005.32
2024-06-15 18:03:00,SystemResetWarning,0826.2,5.00,000.00,028.7,027.2,000.0,037.2,030.3,022.5,0000.0,0019.19,0006.32,0005.30
2024-06-15 18:04:00,SystemResetWarning,0826.2,5.00,000.00,028.8,027.5,000.0,037.2,030.5,021.7,0000.0,0019.55,0006.33,0005.28
2024-06-15 18:05:00,SystemResetWarning,0826.2,4.99,000.00,028.9,027.9,000.0,037.1,030.6,021.1,0000.0,0019.74,0006.33,0005.25
2024-06-15 18:06:00,SystemResetWarning,0826.2,5.00,000.00,028.9,028.1,000.0,037.2,030.7,019.9,0000.0,0020.95,0006.34,0005.22
2024-06-15 18:07:00,SystemResetWarning,0826.2,5.00,000.00,029.0,028.4,000.0,037.2,030.8,019.8,0000.0,0023.08,0006.28,0005.17
2024-06-15 18:08:00,SystemResetWarning,0826.2,5.01,000.00,029.1,028.5,000.0,037.2,030.9,020.3,0000.0,0023.13,0006.20,0005.11
2024-06-15 18:09:00,SystemResetWarning,0826.2,4.99,000.00,029.2,028.7,000.0,037.2,031.0,019.9,0000.0,0022.52,0006.16,0005.06
2024-06-15 18:10:00,SystemResetWarning,0826.2,4.99,000.00,029.2,028.9,000.0,037.3,031.1,020.1,0000.0,0022.53,0006.05,0004.99
2024-06-15 18:11:00,SystemResetWarning,0826.1,4.99,000.00,029.3,028.2,000.0,037.3,030.8,020.6,0000.0,0022.47,0006.02,0004.94
2024-06-15 18:12:00,SystemResetWarning,0825.9,5.00,000.00,028.9,026.1,000.0,037.4,029.8,020.7,0000.0,0022.32,0005.98,0004.90
2024-06-15 18:13:00,SystemResetWarning,0825.9,5.02,000.00,028.6,025.6,000.0,037.4,029.5,021.2,0000.0,0021.62,0005.96,0004.86
2024-06-15 18:14:00,SystemResetWarning,0825.9,5.00,000.00,028.6,026.1,000.0,037.3,029.7,021.7,0000.0,0020.78,0005.98,0004.84
2024-06-15 18:15:00,SystemResetWarning,0825.9,5.00,000.00,028.6,026.6,000.0,037.2,030.0,021.6,0000.0,0020.78,0005.99,0004.84
2024-06-15 18:16:00,SystemResetWarning,0825.9,5.00,000.00,028.6,027.0,000.0,037.2,030.2,021.4,0000.0,0020.96,0005.95,0004.84
2024-06-15 18:17:00,SystemResetWarning,0825.9,5.00,000.00,028.7,027.4,000.0,037.1,030.4,021.8,0000.0,0020.38,0005.90,0004.84
2024-06-15 18:18:00,SystemResetWarning,0825.9,5.00,000.00,028.8,027.7,000.0,037.1,030.5,021.2,0000.0,0017.60,0005.89,0004.85
2024-06-15 18:19:00,SystemResetWarning,0825.9,5.00,000.00,028.9,028.0,000.0,037.1,030.7,020.4,0000.0,0016.20,0005.91,0004.87
2024-06-15 18:20:00,SystemResetWarning,0825.9,5.00,000.00,028.9,028.3,000.0,037.1,030.8,020.7,0000.0,0016.21,0005.96,0004.89
2024-06-15 18:21:00,SystemResetWarning,0825.8,5.00,000.00,029.0,028.5,000.0,037.1,030.9,021.3,0000.0,0015.33,0006.00,0004.92
2024-06-15 18:22:00,SystemResetWarning,0825.9,5.00,000.00,029.1,028.6,000.0,037.2,031.0,020.0,0000.0,0015.36,0006.01,0004.93
2024-06-15 18:23:00,SystemResetWarning,0825.9,5.00,000.00,029.2,028.8,000.0,037.2,031.1,020.1,0000.0,0015.18,0006.00,0004.92
2024-06-15 18:24:00,SystemResetWarning,0825.9,4.99,000.00,029.3,028.7,000.0,037.3,031.0,020.3,0000.0,0014.83,0005.95,0004.89
2024-06-15 18:25:00,SystemResetWarning,0825.8,4.99,000.00,029.0,026.8,000.0,037.3,030.0,019.9,0000.0,0013.72,0005.86,0004.88
2024-06-15 18:26:00,SystemResetWarning,0825.8,5.01,000.00,028.7,025.5,000.0,037.3,029.4,021.2,0000.0,0013.30,0005.79,0004.86
2024-06-15 18:27:00,SystemResetWarning,0825.8,5.01,000.00,028.6,025.9,000.0,037.3,029.6,021.6,0000.0,0014.10,0005.84,0004.86
2024-06-15 18:28:00,SystemResetWarning,0825.8,4.99,000.00,028.6,026.4,000.0,037.2,029.8,021.0,0000.0,0014.63,0005.87,0004.85
2024-06-15 18:29:00,SystemResetWarning,0825.8,5.00,000.00,028.6,026.8,000.0,037.1,030.1,022.1,0000.0,0015.65,0005.89,0004.84
2024-06-15 18:30:00,SystemResetWarning,0825.8,5.01,000.00,028.7,027.2,000.0,037.1,030.3,021.7,0000.0,0016.00,0005.91,0004.84
2024-06-15 18:31:00,SystemResetWarning,0825.8,5.00,000.00,028.7,027.6,000.0,037.1,030.4,021.7,0000.0,0017.98,0005.96,0004.86
2024-06-15 18:32:00,SystemResetWarning,0825.9,5.00,000.00,028.8,027.9,000.0,037.1,030.5,022.1,0000.0,0020.56,0005.99,0004.86
2024-06-15 18:33:00,SystemResetWarning,0825.8,5.00,000.00,028.9,028.2,000.0,037.1,030.7,022.7,0000.0,0021.21,0006.02,0004.86
2024-06-15 18:34:00,SystemResetWarning,0825.8,5.00,000.00,029.0,028.4,000.0,037.1,030.8,021.9,0000.0,0021.92,0006.07,0004.87
2024-06-15 18:35:00,SystemResetWarning,0825.8,4.99,000.00,029.0,028.5,000.0,037.1,030.9,020.7,0000.0,0021.98,0006.14,0004.89
2024-06-15 18:36:00,SystemResetWarning,0825.8,4.99,000.00,029.1,028.7,000.0,037.2,031.0,019.9,0000.0,0022.42,0006.16,0004.90
2024-06-15 18:37:00,SystemResetWarning,0825.8,4.99,000.00,029.2,028.8,000.0,037.2,031.1,019.9,0000.0,0022.24,0006.16,0004.91
2024-06-15 18:38:00,SystemResetWarning,0825.7,4.99,000.00,029.1,027.5,000.0,037.3,030.4,019.2,0000.0,0021.41,0006.11,0004.91
2024-06-15 18:39:00,SystemResetWarning,0825.6,5.00,000.00,028.7,025.6,000.0,037.3,029.5,019.8,0000.0,0022.13,0006.13,0004.92
2024-06-15 18:40:00,SystemResetWarning,0825.6,5.02,000.00,028.5,025.7,000.0,037.3,029.5,020.3,0000.0,0021.01,0006.14,0004.94
2024-06-15 18:41:00,SystemResetWarning,0825.6,4.99,000.00,028.5,026.2,000.0,037.2,029.7,020.5,0000.0,0020.63,0006.13,0004.95
2024-06-15 18:42:00,SystemResetWarning,0825.6,5.00,000.00,028.5,026.7,000.0,037.1,030.0,021.2,0000.0,0019.32,0006.06,0004.93
2024-06-15 18:43:00,SystemResetWarning,0825.6,4.99,000.00,028.6,027.1,000.0,037.1,030.2,020.7,0000.0,0015.91,0005.96,0004.92
2024-06-15 18:44:00,SystemResetWarning,0825.6,5.00,000.00,028.7,027.5,000.0,037.0,030.4,020.6,0000.0,0014.85,0005.95,0004.91
2024-06-15 18:45:00,SystemResetWarning,0825.6,4.99,000.00,028.7,027.8,000.0,037.0,030.5,021.1,0000.0,0014.10,0005.95,0004.91
2024-06-15 18:46:00,SystemResetWarning,0825.6,5.00,000.00,028.8,028.1,000.0,037.0,030.7,020.3,0000.0,0013.72,0005.90,0004.90
2024-06-15 18:47:00,SystemResetWarning,0825.6,4.99,000.00,028.9,028.3,000.0,037.1,030.8,020.0,0000.0,0013.80,0005.86,0004.90
2024-06-15 18:48:00,SystemResetWarning,0825.6,4.99,000.00,029.0,028.5,000.0,037.1,030.9,020.0,0000.0,0014.17,0005.88,0004.90
2024-06-15 18:49:00,SystemResetWarning,0825.6,5.00,000.00,029.1,028.7,000.0,037.1,031.0,019.5,0000.0,0014.03,0005.93,0004.90
2024-06-15 18:50:00,SystemResetWarning,0825.6,5.01,000.00,029.2,028.8,000.0,037.2,031.1,019.5,0000.0,0013.35,0005.94,0004.91
2024-06-15 18:51:00,SystemResetWarning,0825.6,4.99,000.00,029.2,028.2,000.0,037.3,030.7,019.4,0000.0,0013.54,0005.90,0004.90
2024-06-15 18:52:00,SystemResetWarning,0825.4,5.00,000.00,028.9,026.1,000.0,037.3,029.7,019.7,0000.0,0013.62,0005.86,0004.89
2024-06-15 18:53:00,SystemResetWarning,0825.4,5.01,000.00,028.6,025.7,000.0,037.3,029.5,019.9,0000.0,0016.07,0005.86,0004.90
2024-06-15 18:54:00,SystemResetWarning,0825.4,5.02,000.00,028.5,026.2,000.0,037.2,029.7,019.9,0000.0,0016.79,0005.92,0004.93
2024-06-15 18:55:00,SystemResetWarning,0825.4,4.99,000.00,028.6,026.7,000.0,037.1,029.9,019.9,0000.0,0016.48,0005.91,0004.94
2024-06-15 18:56:00,SystemResetWarning,0825.3,4.99,000.00,028.6,027.1,000.0,037.1,030.2,020.5,0000.0,0016.39,0005.90,0004.94
2024-06-15 18:57:00,SystemResetWarning,0825.3,5.00,000.00,028.7,027.5,000.0,037.0,030.4,020.5,0000.0,0016.30,0005.90,0004.93
2024-06-15 18:58:00,SystemResetWarning,0825.3,5.00,000.00,028.8,027.8,000.0,037.0,030.5,019.8,0000.0,0017.27,0005.98,0004.94
2024-06-15 18:59:00,SystemResetWarning,0825.3,5.00,000.00,028.8,028.1,000.0,037.0,030.6,020.2,0000.0,0017.55,0006.00,0004.94
